Date String (YYYY-MM-DD hh:mm:ss) UTC,Instrument flags,Ambient pressure (hPa),Sample flow (lpm),Bypass flow (lpm),Sample temperature (°C),Ambient temperature (°C),ASC tube jacket temperature (°C),LED temperature (°C),Box temperature (°C),Sample RH (%),Span deviation,Mass concentration (μg/m³),Mass concentration (μg/m³),Mass concentration (μg/m³)
DateTimeUTC,F1_M11,P_M11,Q1_M11,Q2_M11,T1_M11,T2_M11,T3_M11,T4_M11,T5_M11,U1_M11,ZSPAN_M11,X0_M11,X2_M11,X1_M11
2022-12-06 18:00:00,,0819.9,5.00,0.00,22.8,21.7,00.0,31.7,24.6,08.8,0000.0,0001.13,0000.56,0000.38
2022-12-06 18:01:00,,0819.9,4.99,0.00,22.8,21.7,00.0,31.7,24.6,08.8,0000.0,0001.21,0000.59,0000.38
2022-12-06 18:02:00,,0819.9,5.00,0.00,22.9,21.7,00.0,31.7,24.7,08.8,0000.0,0001.21,0000.59,0000.37
2022-12-06 18:03:00,,0819.8,5.01,0.00,22.9,21.7,00.0,31.7,24.7,08.8,0000.0,0001.18,0000.57,0000.37
2022-12-06 18:04:00,,0819.7,5.00,0.00,22.9,21.7,00.0,31.7,24.7,09.8,0000.0,0001.22,0000.59,0000.37
2022-12-06 18:05:00,,0819.8,5.00,0.00,22.9,21.8,00.0,31.7,24.8,10.1,0000.0,0001.18,0000.57,0000.36
2022-12-06 18:06:00,,0819.8,5.00,0.00,22.9,21.8,00.0,31.7,24.8,10.2,0000.0,0001.04,0000.56,0000.35
2022-12-06 18:07:00,,0819.7,5.01,0.00,22.9,21.8,00.0,31.8,24.8,09.5,0000.0,0000.90,0000.55,0000.34
2022-12-06 18:08:00,,0819.6,5.00,0.00,22.9,21.8,00.0,31.8,24.8,08.6,0000.0,0000.90,0000.57,0000.38
2022-12-06 18:09:00,,0819.6,5.00,0.00,22.9,21.8,00.0,31.8,24.8,08.8,0000.0,0000.94,0000.62,0000.43
2022-12-06 18:10:00,,0819.6,4.99,0.00,22.9,21.8,00.0,31.8,24.8,09.0,0000.0,0000.99,0000.65,0000.46
2022-12-06 18:11:00,,0819.5,4.99,0.00,23.0,21.8,00.0,31.8,24.8,08.6,0000.0,0000.97,0000.65,0000.48
2022-12-06 18:12:00,,0819.5,4.99,0.00,23.0,21.8,00.0,31.8,24.7,08.7,0000.0,0000.96,0000.66,0000.51
2022-12-06 18:13:00,,0819.7,5.00,0.00,23.0,21.7,00.0,31.8,24.7,08.9,0000.0,0001.05,0000.71,0000.54
2022-12-06 18:14:00,,0819.7,5.00,0.00,23.0,21.7,00.0,31.8,24.8,09.0,0000.0,0001.76,0000.72,0000.56
2022-12-06 18:15:00,,0819.7,4.99,0.00,23.0,21.8,00.0,31.8,24.8,09.1,0000.0,0001.91,0000.71,0000.56
2022-12-06 18:16:00,,0819.6,5.00,0.00,23.0,21.8,00.0,31.8,24.8,09.3,0000.0,0001.98,0000.74,0000.57
2022-12-06 18:17:00,,0819.6,5.00,0.00,23.0,21.8,00.0,31.8,24.8,09.2,0000.0,0001.95,0000.72,0000.58
2022-12-06 18:18:00,,0819.8,5.01,0.00,23.0,21.8,00.0,31.8,24.8,08.7,0000.0,0002.01,0000.75,0000.60
2022-12-06 18:19:00,,0819.6,5.00,0.00,23.0,21.8,00.0,31.8,24.8,08.8,0000.0,0002.54,0000.77,0000.62
2022-12-06 18:20:00,,0819.6,5.00,0.00,23.0,21.8,00.0,31.8,24.8,08.5,0000.0,0003.53,0000.82,0000.66
2022-12-06 18:21:00,,0819.6,5.00,0.00,23.0,21.8,00.0,31.9,24.8,08.6,0000.0,0003.65,0000.94,0000.79
2022-12-06 18:22:00,,0819.7,5.00,0.00,23.0,21.9,00.0,31.9,24.9,08.6,0000.0,0004.18,0001.30,0001.13
2022-12-06 18:23:00,,0819.6,4.99,0.00,23.0,21.9,00.0,31.9,24.9,08.6,0000.0,0004.59,0001.58,0001.40
2022-12-06 18:24:00,,0819.7,5.00,0.00,23.0,21.9,00.0,31.9,24.9,08.7,0000.0,0004.86,0001.73,0001.52
2022-12-06 18:25:00,,0819.5,5.00,0.00,23.0,21.9,00.0,31.9,24.9,08.7,0000.0,0004.40,0001.87,0001.62
2022-12-06 18:26:00,,0819.5,5.00,0.00,23.0,21.9,00.0,31.9,24.9,08.8,0000.0,0004.38,0001.93,0001.66
2022-12-06 18:27:00,,0819.4,5.00,0.00,23.0,21.9,00.0,31.9,24.8,08.9,0000.0,0004.44,0001.97,0001.70
2022-12-06 18:28:00,,0819.5,5.00,0.00,23.0,21.9,00.0,31.9,24.8,08.9,0000.0,0004.56,0002.06,0001.78
2022-12-06 18:29:00,,0819.5,5.01,0.00,23.0,21.9,00.0,31.9,24.8,09.0,0000.0,0004.69,0002.19,0001.89
2022-12-06 18:30:00,,0819.5,5.01,0.00,23.0,21.9,00.0,31.9,24.9,08.9,0000.0,0004.56,0002.41,0002.12
2022-12-06 18:31:00,,0819.5,4.99,0.00,23.0,21.9,00.0,31.9,24.9,08.6,0000.0,0003.78,0002.59,0002.28
2022-12-06 18:32:00,,0819.5,5.00,0.00,23.1,21.9,00.0,31.9,24.9,08.5,0000.0,0004.01,0002.75,0002.43
2022-12-06 18:33:00,,0819.5,5.00,0.00,23.1,21.9,00.0,31.9,24.9,08.5,0000.0,0003.92,0002.71,0002.40
2022-12-06 18:34:00,,0819.5,5.00,0.00,23.1,21.9,00.0,31.9,24.9,08.7,0000.0,0003.66,0002.53,0002.23
2022-12-06 18:35:00,,0819.5,4.99,0.00,23.1,21.8,00.0,31.9,24.9,08.6,0000.0,0003.30,0002.35,0002.11
2022-12-06 18:36:00,,0819.5,5.00,0.00,23.1,21.8,00.0,31.9,24.8,08.6,0000.0,0003.21,0002.31,0002.04
2022-12-06 18:37:00,,0819.5,5.00,0.00,23.1,21.8,00.0,31.9,24.8,08.7,0000.0,0003.11,0002.27,0002.03
2022-12-06 18:38:00,,0819.5,5.01,0.00,23.1,21.8,00.0,31.9,24.8,08.7,0000.0,0003.00,0002.22,0001.99
2022-12-06 18:39:00,,0819.5,5.00,0.00,23.1,21.8,00.0,31.9,24.8,08.8,0000.0,0002.95,0002.17,0001.95
2022-12-06 18:40:00,,0819.5,4.99,0.00,23.0,21.8,00.0,31.9,24.8,08.7,0000.0,0002.81,0002.07,0001.86
2022-12-06 18:41:00,,0819.5,5.00,0.00,23.1,21.8,00.0,31.9,24.9,08.5,0000.0,0002.75,0001.90,0001.68
2022-12-06 18:42:00,,0819.5,4.99,0.00,23.1,21.8,00.0,31.9,24.8,08.4,0000.0,0002.56,0001.74,0001.53
2022-12-06 18:43:00,,0819.5,4.99,0.00,23.0,21.8,00.0,32.0,24.8,08.5,0000.0,0002.33,0001.58,0001.39
2022-12-06 18:44:00,,0819.5,5.00,0.00,23.0,21.7,00.0,32.0,24.8,08.5,0000.0,0002.59,0001.39,0001.22
2022-12-06 18:45:00,,0819.5,5.02,0.00,23.0,21.7,00.0,32.0,24.8,08.4,0000.0,0002.96,0001.53,0001.33
2022-12-06 18:46:00,,0819.6,5.00,0.00,23.0,21.7,00.0,32.0,24.9,08.4,0000.0,0003.27,0001.70,0001.50
2022-12-06 18:47:00,,0819.5,5.00,0.00,23.0,21.7,00.0,32.0,24.9,08.4,0000.0,0003.34,0001.75,0001.59
2022-12-06 18:48:00,,0819.5,4.99,0.00,23.0,21.7,00.0,32.0,24.9,08.5,0000.0,0003.58,0001.94,0001.75
2022-12-06 18:49:00,,0819.5,5.00,0.00,23.0,21.7,00.0,32.0,24.8,08.5,0000.0,0004.06,0002.27,0002.05
2022-12-06 18:50:00,,0819.5,5.00,0.00,23.0,21.7,00.0,32.0,24.8,08.4,0000.0,0004.80,0002.87,0002.66
2022-12-06 18:51:00,,0819.5,5.00,0.00,23.0,21.7,00.0,32.0,24.8,08.5,0000.0,0005.09,0003.12,0002.95
2022-12-06 18:52:00,,0819.4,5.00,0.00,23.0,21.7,00.0,32.0,24.8,08.5,0000.0,0005.07,0003.14,0002.96
2022-12-06 18:53:00,,0819.6,5.00,0.00,23.0,21.7,00.0,31.9,24.8,08.4,0000.0,0005.50,0003.13,0002.93
2022-12-06 18:54:00,,0819.6,5.00,0.00,23.0,21.7,00.0,31.9,24.8,08.7,0000.0,0005.61,0003.17,0002.98
2022-12-06 18:55:00,,0819.5,5.00,0.00,23.0,21.7,00.0,31.9,24.8,08.7,0000.0,0005.58,0003.37,0003.24
2022-12-06 18:56:00,,0819.5,4.99,0.00,23.0,21.7,00.0,31.9,24.8,08.8,0000.0,0005.90,0003.48,0003.34
2022-12-06 18:57:00,,0819.5,5.00,0.00,23.0,21.7,00.0,31.9,24.8,08.5,0000.0,0007.19,0004.11,0003.96
2022-12-06 18:58:00,,0819.5,5.00,0.00,23.0,21.7,00.0,31.9,24.7,08.6,0000.0,0008.87,0005.00,0004.83
2022-12-06 18:59:00,,0819.5,5.00,0.00,23.0,21.7,00.0,32.0,24.8,08.8,0000.0,0010.27,0005.74,0005.57
